Wind_Speed
36 34 33 34 33 31 31 29 28 26 26 25 23 22 21 20 20 20 19 19 18 18 18 18 17 17 16 16 16 16 15 15 15 15 14 14 13 13 12 11 11 12 12 12
38 37 35 35 34 33 32 31 29 28 27 26 25 24 23 21 21 20 20 20 19 19 19 19 19 18 18 18 18 17 17 16 16 16 15 15 15 14 13 13 12 12 13 13
37 37 38 38 36 34 33 32 31 29 28 27 26 25 24 23 23 22 22 21 21 21 20 20 20 20 20 19 19 19 19 18 17 17 17 17 15 14 14 14 13 13 14 14
36 38 39 38 36 35 34 33 31 30 29 28 27 27 26 26 25 24 23 23 23 23 22 22 22 22 21 21 21 21 20 19 18 18 18 17 16 16 15 15 16 16 16 16
37 37 37 38 37 35 34 34 33 31 30 29 28 28 27 26 26 25 24 24 24 24 24 23 23 22 22 22 23 23 22 21 20 20 20 19 18 18 18 18 18 19 18 18
38 37 37 37 36 35 34 35 33 32 31 30 29 28 27 27 27 26 25 25 24 24 24 24 23 24 24 23 23 23 22 22 23 23 22 21 21 21 20 20 20 21 20 20
39 38 37 37 36 35 35 34 32 32 31 30 30 29 28 28 28 27 26 25 24 24 25 25 24 24 23 23 23 23 23 23 23 24 23 22 22 22 21 22 22 22 21 21
39 38 37 37 36 35 35 34 33 32 31 31 30 29 29 29 29 27 25 25 24 24 25 25 25 24 23 23 23 24 24 24 24 24 23 22 23 23 23 23 24 23 23 23
39 38 37 37 36 35 34 34 33 33 31 31 30 30 29 29 28 27 27 26 26 26 26 26 25 24 24 24 24 24 25 25 24 23 23 24 24 24 24 24 24 24 24 24
38 38 38 37 36 36 34 33 33 33 32 31 31 30 30 29 29 29 29 28 27 27 28 27 27 26 25 25 25 25 26 26 25 25 24 25 25 25 25 25 26 26 26 26
36 37 37 37 36 36 35 34 33 33 32 32 32 31 30 30 30 30 30 30 29 29 28 28 28 28 27 26 26 27 27 27 26 26 26 27 27 27 27 27 28 28 27 26
36 36 36 35 35 35 35 34 33 33 33 33 33 32 31 31 31 31 31 31 31 31 30 29 30 29 29 28 28 29 28 28 29 28 28 29 29 29 29 30 29 28 28 27
36 36 35 35 35 34 34 34 34 34 33 33 33 33 32 32 32 32 32 32 32 31 31 30 29 29 29 30 30 30 30 30 31 30 30 31 31 30 30 30 29 28 28 28
35 35 35 34 34 34 34 34 34 34 33 32 33 33 33 32 32 32 32 32 33 33 32 31 30 30 30 30 30 31 31 31 31 31 31 31 31 30 31 30 30 30 29 29
35 34 34 33 33 34 34 34 34 34 33 33 33 32 32 31 32 32 32 32 32 33 33 32 32 31 31 31 31 32 33 33 32 31 31 31 31 31 31 30 31 31 31 31
34 33 33 33 33 34 34 34 34 34 34 34 34 33 32 32 32 33 33 34 34 34 34 34 34 34 34 34 33 34 33 33 33 32 32 33 32 32 32 32 32 33 32 32
31 32 32 33 33 33 33 34 33 33 34 34 34 34 33 33 33 33 34 35 35 36 36 35 35 35 35 35 35 34 34 33 32 32 32 33 33 34 34 33 33 33 33 33
29 29 30 31 31 32 33 33 33 33 34 34 34 34 35 34 34 34 34 35 35 36 36 36 36 36 35 35 35 34 34 34 34 33 33 34 34 34 34 34 34 33 32 33
26 27 28 29 30 31 32 32 32 33 33 34 34 34 35 35 34 34 35 35 35 35 35 35 35 35 35 34 34 34 34 34 34 33 33 34 34 34 34 34 33 33 32 32
25 26 27 28 29 30 30 31 32 33 33 33 33 33 33 34 35 35 35 35 35 35 35 35 35 35 35 35 34 34 33 33 33 33 33 33 33 33 33 33 33 32 32 32
24 25 25 26 27 28 29 29 31 32 32 32 33 33 33 33 34 34 34 34 34 35 35 35 35 34 34 34 34 33 32 32 33 33 33 33 33 33 33 33 33 33 33 33
20 22 23 24 24 25 26 27 28 29 30 31 32 32 32 32 32 33 32 33 33 34 34 34 34 34 34 34 35 34 33 33 33 33 33 33 33 33 33 33 33 33 32 33
19 20 20 21 22 23 23 25 25 26 27 28 29 30 30 31 31 31 32 32 33 33 34 34 33 33 33 34 34 34 34 33 33 33 32 32 33 33 33 33 32 32 32 32
17 18 19 20 20 20 21 22 23 24 25 26 27 28 28 29 30 31 31 31 31 32 32 32 32 32 32 32 32 32 32 32 31 31 31 32 32 33 33 32 32 32 32 32
16 16 17 17 18 19 20 20 20 21 22 23 24 25 26 27 28 29 29 29 29 29 29 29 30 30 30 31 31 31 31 30 30 30 31 31 32 32 32 32 32 32 32 33
14 14 15 15 15 16 18 19 20 20 21 22 23 24 24 25 26 27 27 27 27 27 27 28 28 29 29 29 29 29 30 30 30 30 30 31 31 31 31 32 32 32 32 33
14 14 14 15 15 16 17 17 18 19 20 20 21 22 23 23 24 24 25 25 25 26 26 26 27 27 27 27 27 27 28 28 28 29 29 29 30 30 30 30 31 31 31 31
Wind_Direction
232 234 238 240 240 240 242 243 245 248 248 250 252 255 258 259 261 264 266 267 265 265 267 268 270 272 277 279 282 285 289 291 294 296 296 298 302 305 306 306 306 307 309 310
234 234 236 238 239 240 242 244 246 248 249 250 250 252 255 258 260 262 263 262 261 262 264 266 267 269 272 274 277 279 282 287 290 293 294 296 297 299 302 302 301 302 305 307
236 237 237 238 238 241 243 245 247 249 249 249 249 250 252 256 258 259 259 259 258 260 263 264 265 266 268 271 273 274 277 281 285 288 291 292 291 296 297 297 300 302 302 303
235 237 238 239 239 240 243 245 247 248 249 250 250 251 251 253 254 256 257 258 259 261 263 263 263 264 265 268 271 271 271 276 279 283 287 288 287 291 295 297 298 298 298 298
234 237 240 240 239 239 241 243 246 248 248 249 250 251 251 251 252 255 257 259 259 260 261 261 262 262 264 266 270 272 275 273 274 277 280 284 287 291 294 295 295 294 293 293
236 236 239 241 241 240 242 245 245 247 247 248 249 250 250 250 251 254 256 257 259 260 260 261 262 262 264 265 266 269 272 273 275 277 281 282 287 287 289 291 293 294 292 291
236 238 239 239 241 241 243 245 246 248 247 247 248 249 249 249 251 253 254 256 257 258 259 260 262 264 264 263 264 267 270 273 274 277 281 282 284 285 286 288 289 290 290 289
234 236 237 239 242 242 245 245 246 247 247 247 247 247 248 249 250 252 254 255 255 257 259 259 261 263 265 265 264 265 268 271 274 275 276 278 281 282 284 284 286 288 288 287
235 236 238 240 242 243 245 246 246 246 246 246 246 246 246 248 249 250 252 254 256 257 259 260 261 263 266 266 266 265 268 269 272 273 274 276 278 280 281 281 283 286 287 287
236 236 238 240 242 243 244 246 245 245 245 246 246 247 247 246 247 249 252 254 256 257 259 260 261 262 265 265 265 266 268 268 270 272 273 274 276 278 280 282 282 284 284 285
235 237 238 240 243 243 244 244 244 243 244 245 246 246 246 247 249 250 251 254 255 257 258 258 260 261 262 264 265 266 268 269 269 270 271 273 275 277 279 280 281 283 282 283
234 236 238 240 242 242 242 242 243 243 243 244 245 247 248 249 249 250 253 254 256 256 257 260 261 262 264 265 266 266 266 268 268 268 269 271 274 277 278 279 278 280 280 281
234 236 238 239 239 241 241 242 242 242 243 244 246 248 250 251 252 252 254 253 254 254 256 258 259 262 265 266 267 267 268 267 265 268 269 270 273 276 277 278 279 279 279 280
236 237 239 239 239 240 240 241 242 242 243 244 246 249 250 251 253 254 254 253 253 254 256 258 260 262 264 265 267 268 268 269 267 267 269 271 274 277 278 278 280 281 279 280
236 237 237 238 239 240 240 240 240 241 242 243 245 247 250 251 252 253 253 253 253 254 256 257 259 261 262 264 268 269 269 269 268 269 270 272 274 275 276 277 279 280 279 279
236 237 236 236 238 239 241 241 242 242 242 242 244 247 250 252 253 253 254 255 255 256 256 257 258 260 261 264 267 269 269 269 268 270 271 272 273 274 275 277 278 279 279 279
238 238 237 236 237 238 239 241 242 243 243 244 245 247 249 252 253 254 255 255 256 257 258 258 259 260 262 264 267 268 269 268 268 270 271 271 272 273 275 277 278 278 278 279
238 239 239 238 238 239 240 241 242 242 244 244 246 248 250 252 254 255 256 256 256 257 257 258 260 261 264 266 267 267 267 268 269 270 271 272 272 272 273 275 277 277 278 279
239 241 241 241 242 243 243 243 243 244 245 247 248 250 251 253 256 258 258 258 258 259 260 260 263 263 265 266 266 267 267 268 268 269 270 272 272 272 273 275 276 277 277 278
241 242 241 242 244 245 244 243 244 245 247 248 249 251 252 254 255 257 257 258 258 259 261 262 263 264 265 265 266 267 268 268 268 268 269 271 271 271 272 274 275 275 276 277
239 239 240 241 242 243 244 245 246 246 247 248 249 250 252 254 256 257 257 256 256 258 260 261 262 263 264 265 265 267 268 268 268 268 269 270 270 271 272 273 274 275 276 277
242 244 244 244 244 244 244 245 247 248 249 250 251 252 253 254 255 256 257 258 258 259 260 262 262 263 264 264 264 264 265 266 267 268 269 269 269 270 271 272 274 274 276 277
246 247 247 247 245 245 244 245 246 248 249 251 252 252 253 254 255 257 258 259 259 260 261 262 263 264 264 264 264 264 264 264 266 266 267 268 269 269 270 272 273 274 275 276
245 245 245 244 243 243 244 246 246 247 249 252 253 254 255 257 257 258 260 260 260 260 261 261 262 263 263 264 264 264 263 263 265 266 266 267 268 269 270 271 273 275 275 277
240 240 242 244 244 242 243 245 248 250 252 254 255 257 259 260 260 259 260 261 262 262 262 262 262 263 264 265 264 263 262 263 266 268 269 268 269 270 271 271 272 275 276 276
242 243 242 243 246 247 247 249 252 254 257 259 260 261 263 263 263 262 261 261 261 262 263 264 264 264 265 266 265 263 262 263 265 267 268 268 269 270 272 273 274 275 276 275
241 243 247 249 252 253 254 256 256 257 259 261 262 264 265 264 263 262 261 260 260 261 262 263 264 265 265 265 265 264 263 264 266 267 268 269 270 271 272 273 274 275 276 276
Height
5862 5865 5869 5872 5875 5878 5881 5885 5888 5891 5892 5894 5895 5896 5897 5898 5899 5900 5900 5901 5901 5901 5901 5901 5901 5901 5900 5900 5899 5898 5897 5897 5896 5895 5894 5893 5891 5890 5888 5887 5886 5885 5883 5882
5853 5857 5860 5863 5867 5870 5874 5877 5880 5882 5885 5887 5888 5889 5890 5892 5893 5893 5894 5895 5895 5896 5896 5896 5896 5896 5896 5895 5895 5894 5894 5893 5892 5891 5890 5889 5888 5887 5885 5884 5883 5881 5880 5879
5846 5849 5851 5855 5860 5863 5866 5869 5872 5874 5878 5879 5881 5882 5884 5885 5886 5887 5888 5889 5889 5890 5890 5890 5890 5890 5890 5890 5890 5890 5889 5889 5888 5887 5886 5885 5884 5883 5882 5881 5880 5878 5877 5875
5837 5840 5842 5850 5852 5855 5858 5861 5864 5866 5869 5871 5873 5875 5876 5878 5879 5880 5881 5882 5883 5884 5884 5884 5885 5885 5885 5885 5884 5884 5883 5884 5883 5883 5882 5881 5880 5879 5878 5877 5876 5874 5873 5871
5828 5831 5835 5840 5843 5847 5850 5853 5856 5859 5861 5863 5865 5867 5869 5870 5871 5873 5874 5875 5876 5877 5878 5878 5878 5879 5879 5879 5879 5878 5878 5878 5878 5877 5876 5876 5875 5874 5873 5872 5871 5869 5868 5866
5820 5824 5828 5833 5836 5839 5843 5845 5848 5851 5853 5855 5857 5860 5862 5863 5865 5866 5868 5869 5869 5870 5871 5872 5872 5872 5872 5873 5873 5873 5873 5873 5872 5871 5871 5870 5870 5869 5868 5867 5866 5864 5863 5861
5811 5815 5820 5824 5827 5831 5835 5838 5840 5842 5845 5848 5850 5853 5855 5856 5857 5859 5861 5862 5862 5863 5864 5865 5866 5866 5866 5866 5867 5867 5867 5867 5867 5866 5866 5865 5864 5863 5862 5861 5860 5858 5857 5856
5802 5807 5814 5815 5819 5823 5826 5829 5832 5834 5837 5840 5842 5844 5846 5848 5850 5852 5853 5854 5855 5857 5857 5858 5859 5859 5860 5860 5861 5861 5861 5861 5860 5860 5859 5859 5858 5857 5856 5855 5854 5852 5850 5850
5795 5800 5803 5806 5809 5813 5817 5820 5823 5826 5828 5831 5834 5836 5838 5840 5842 5844 5846 5847 5849 5850 5851 5851 5852 5853 5853 5853 5853 5854 5854 5854 5854 5853 5853 5852 5852 5851 5850 5849 5848 5846 5844 5843
5785 5789 5793 5797 5800 5804 5807 5811 5814 5817 5820 5823 5825 5828 5830 5833 5835 5836 5838 5839 5841 5842 5843 5844 5844 5845 5846 5846 5846 5847 5847 5847 5847 5846 5846 5846 5845 5844 5843 5842 5841 5840 5838 5836
5776 5780 5784 5788 5791 5795 5799 5802 5805 5808 5811 5814 5817 5819 5822 5825 5826 5828 5830 5831 5833 5834 5835 5836 5837 5837 5838 5839 5839 5839 5840 5839 5839 5839 5839 5838 5837 5837 5836 5835 5834 5832 5831 5830
5768 5772 5776 5780 5783 5787 5790 5793 5796 5800 5802 5805 5808 5811 5813 5816 5818 5820 5822 5823 5824 5825 5827 5828 5828 5829 5830 5831 5831 5831 5831 5831 5831 5831 5830 5830 5829 5829 5828 5827 5826 5824 5824 5823
5759 5763 5767 5771 5774 5778 5781 5784 5788 5791 5794 5797 5800 5802 5804 5807 5809 5811 5812 5814 5815 5816 5818 5819 5819 5821 5822 5822 5823 5823 5823 5823 5823 5822 5822 5822 5821 5820 5819 5819 5817 5816 5816 5815
5751 5755 5759 5762 5766 5769 5772 5775 5779 5782 5785 5788 5791 5793 5795 5798 5800 5801 5803 5805 5806 5808 5809 5810 5811 5812 5813 5813 5814 5814 5814 5814 5814 5814 5813 5813 5812 5811 5810 5810 5809 5808 5808 5807
5743 5746 5750 5754 5757 5760 5763 5766 5770 5773 5776 5779 5782 5784 5786 5788 5791 5792 5794 5796 5797 5799 5800 5801 5803 5803 5804 5804 5805 5804 5804 5805 5805 5805 5804 5804 5803 5802 5802 5801 5800 5799 5798 5798
5734 5738 5741 5744 5748 5751 5754 5758 5761 5764 5767 5770 5772 5775 5777 5779 5781 5783 5785 5786 5788 5789 5790 5791 5793 5794 5794 5795 5795 5795 5795 5795 5794 5795 5794 5794 5794 5793 5792 5792 5791 5789 5789 5788
5726 5730 5733 5736 5739 5742 5746 5749 5752 5755 5757 5760 5763 5765 5767 5770 5772 5773 5775 5777 5778 5779 5780 5781 5782 5783 5783 5784 5785 5785 5785 5785 5784 5784 5784 5784 5784 5783 5783 5782 5780 5780 5779 5778
5719 5722 5725 5728 5731 5734 5736 5739 5742 5745 5748 5751 5753 5755 5758 5760 5762 5763 5765 5766 5767 5768 5769 5770 5771 5772 5773 5773 5774 5774 5774 5774 5774 5774 5774 5774 5774 5773 5772 5772 5771 5770 5769 5769
5711 5714 5717 5719 5722 5725 5727 5730 5733 5736 5739 5741 5744 5746 5748 5750 5752 5753 5754 5756 5757 5758 5759 5760 5760 5761 5762 5762 5762 5763 5763 5763 5763 5763 5763 5763 5763 5762 5762 5761 5760 5760 5759 5759
5704 5707 5709 5711 5714 5716 5719 5721 5724 5727 5729 5732 5734 5736 5738 5740 5742 5743 5744 5745 5746 5747 5748 5749 5750 5751 5751 5751 5752 5752 5752 5753 5753 5753 5753 5753 5753 5752 5752 5751 5750 5750 5749 5749
5697 5699 5702 5704 5706 5708 5710 5713 5715 5718 5720 5722 5724 5726 5728 5730 5731 5732 5733 5735 5736 5737 5738 5738 5739 5740 5740 5741 5741 5742 5742 5742 5742 5742 5742 5742 5742 5742 5742 5741 5740 5740 5739 5738
5691 5693 5695 5696 5698 5700 5703 5705 5707 5709 5711 5713 5715 5717 5718 5720 5721 5722 5723 5724 5726 5726 5727 5727 5728 5729 5730 5730 5730 5731 5731 5732 5732 5732 5732 5732 5731 5731 5731 5731 5730 5729 5729 5728
5685 5687 5688 5690 5692 5693 5695 5697 5699 5701 5703 5704 5706 5707 5709 5710 5711 5712 5713 5714 5715 5716 5717 5717 5718 5719 5719 5719 5719 5720 5720 5721 5721 5721 5721 5721 5721 5721 5720 5720 5720 5719 5718 5718
5680 5681 5682 5684 5685 5687 5689 5690 5692 5693 5695 5696 5697 5699 5700 5701 5702 5703 5703 5704 5705 5706 5706 5707 5708 5708 5708 5708 5709 5709 5709 5710 5710 5710 5710 5710 5710 5710 5710 5710 5709 5709 5708 5708
5675 5677 5678 5679 5680 5681 5683 5684 5685 5687 5688 5689 5689 5690 5691 5692 5693 5693 5694 5695 5695 5696 5696 5697 5697 5698 5698 5698 5699 5699 5699 5700 5700 5700 5700 5700 5700 5700 5700 5699 5699 5698 5698 5697
5671 5673 5674 5675 5675 5676 5677 5678 5679 5680 5681 5681 5682 5682 5683 5683 5683 5684 5685 5685 5686 5687 5687 5687 5688 5688 5688 5689 5689 5689 5690 5690 5690 5691 5690 5690 5690 5690 5689 5689 5688 5688 5687 5686
5667 5668 5669 5670 5670 5671 5671 5672 5673 5673 5674 5674 5675 5675 5675 5675 5675 5676 5677 5677 5677 5678 5678 5679 5679 5679 5679 5679 5680 5680 5680 5681 5681 5681 5681 5680 5680 5680 5680 5679 5678 5677 5677 5676